This demonstration page uses our WeatherBlox Daily Observations layout. Learn more.

Left ArrowRight Arrow

39.92423, -83.80882

Hourly Observations for May 13, 2021

Temp ( °F °C ) Dew Point ( °F °C ) Humidity (%) Winds ( mph kmh ) Pressure ( in mb ) Visibility ( mi km ) Precip ( " mm )
12:56 am 00:56 Clear 45 7.2 33 0.6 63 63 N N/A 30.39 1029 10 16.0934 N/A
1:56 am 01:56 Clear 42 5.6 35 1.7 76 76 NNE 3 6 30.38 1029 10 16.0934 N/A
2:56 am 02:56 Clear 39 3.9 36 2.2 89 89 N N/A 30.38 1029 10 16.0934 N/A
3:56 am 03:56 Clear 39 3.9 36 2.2 89 89 N 3 6 30.38 1029 10 16.0934 N/A
4:56 am 04:56 Clear 38 3.3 37 2.8 97 97 N 3 6 30.38 1029 10 16.0934 N/A
5:56 am 05:56 Clear 38 3.3 36 2.2 93 93 N 3 6 30.38 1029 10 16.0934 N/A
6:56 am 06:56 Sunny 38 3.3 35 1.7 89 89 N 3 6 30.39 1029 10 16.0934 N/A
7:56 am 07:56 Sunny 45 7.2 39 3.9 80 80 NNW 3 6 30.41 1030 10 16.0934 N/A
8:06 am 08:06 Mostly Sunny 46 8 39 4 76 76 NNW 3 6 30.42 1030 8 12.87472 N/A
8:56 am 08:56 Sunny 52 11.1 39 3.9 61 61 N 7 11 30.42 1030 10 16.0934 N/A
9:56 am 09:56 Sunny 57 13.9 33 0.6 41 41 NNE 7 11 30.42 1030 10 16.0934 N/A
10:56 am 10:56 Sunny 60 15.6 36 2.2 41 41 NE 8 13 30.42 1030 10 16.0934 N/A
11:56 am 11:56 Sunny 61 16.1 32 undefined 34 34 ENE 15 24 30.41 1030 10 16.0934 N/A
12:56 pm 12:56 Sunny 62 16.7 33 0.6 34 34 VRB 6 9 30.4 1029 10 16.0934 N/A
1:56 pm 13:56 Mostly Sunny 64 17.8 31 -0.6 29 29 ENE 9 15 30.38 1029 10 16.0934 N/A
2:56 pm 14:56 Mostly Sunny 66 18.9 33 0.6 29 29 ENE 13 20 30.36 1028 10 16.0934 N/A
3:56 pm 15:56 Mostly Sunny 65 18.3 30 -1.1 27 27 N 9 15 30.34 1028 10 16.0934 N/A
4:56 pm 16:56 Partly Cloudy 65 18.3 29 -1.7 26 26 NE 8 13 30.32 1027 10 16.0934 N/A
5:56 pm 17:56 Partly Cloudy 65 18.3 30 -1.1 27 27 VRB 5 7 30.32 1027 10 16.0934 N/A
6:56 pm 18:56 Mostly Cloudy 63 17.2 29 -1.7 28 28 NNE 7 11 30.31 1026 10 16.0934 N/A
7:56 pm 19:56 Sunny 58 14.4 35 1.7 42 42 NE 7 11 30.31 1026 10 16.0934 N/A
8:56 pm 20:56 Clear 57 13.9 32 undefined 39 39 NE 6 9 30.31 1026 10 16.0934 N/A
9:56 pm 21:56 Clear 53 11.7 35 1.7 51 51 N N/A 30.32 1027 10 16.0934 N/A
10:56 pm 22:56 Clear 51 10.6 34 1.1 52 52 N N/A 30.33 1027 10 16.0934 N/A
11:56 pm 23:56 Clear 48 8.9 37 2.8 66 66 N N/A 30.33 1027 10 16.0934 N/A

Powered by AerisWeather